Regional Weather Roundup
Issued by NWS

Home | Current Version | Previous Version | Graphics & Text | Print | Product List | Glossary On
Versions: 1 2 3 4 5 6 7 8 9 10 11 12 13 14 15 16 17 18 19 20 21 22 23 24 25 26 27 28 29 30 31 32 33 34 35 36 37 38 39 40 41 42 43 44 45 46 47 48 49 50
000
ASUS43 KFSD 280110
RWRSD

WEATHER ROUNDUP FOR SOUTH DAKOTA
NATIONAL WEATHER SERVICE SIOUX FALLS SD
800 PM CDT THU AUG 27 2015

NOTE: "FAIR" INDICATES FEW OR NO CLOUDS BELOW 12,000 FEET WITH NO
SIGNIFICANT WEATHER AND/OR OBSTRUCTIONS TO VISIBILITY.


SDZ001>005-009-010-012>017-280200-
NORTHWEST AND NORTH CENTRAL SOUTH DAKOTA

CITY           SKY/WX    TMP DP  RH WIND       PRES   REMARKS
BUFFALO          N/A     73  59  61 SE10      29.89R
MOBRIDGE       PTCLDY    71  67  87 CALM      29.91F
$$

SDZ012>016-024>037-041>051-057-063-072>074-280200-
SOUTHWEST AND SOUTH CENTRAL SOUTH DAKOTA

CITY           SKY/WX    TMP DP  RH WIND       PRES   REMARKS
RAPID CTY ARPT CLEAR     72  62  71 SE5       30.00S
PIERRE         CLOUDY    70  66  87 NE14      29.89F
CUSTER         CLEAR     68  52  56 E6        30.13F
ELLSWORTH AFB  CLEAR     73  62  70 S6        29.99F
PHILIP         PTCLDY    71  64  78 CALM      29.95F
PINE RIDGE     CLEAR     71  58  63 NE3       30.01S
WINNER         FAIR      74  70  87 E7        29.90S
$$

SDZ004>011-016>023-039-040-280200-
NORTHEAST SOUTH DAKOTA

CITY           SKY/WX    TMP DP  RH WIND       PRES   REMARKS
ABERDEEN       CLOUDY    72  68  87 N3        29.93F
WATERTOWN      LGT RAIN  72  67  84 S9        29.96S
BROOKINGS      CLOUDY    72  64  78 SE13      29.98F
SISSETON         N/A     72  67  84 CALM      29.92S
$$

SDZ017-020-022-023-036>040-048>070-280200-
SOUTHEAST SOUTH DAKOTA

CITY           SKY/WX    TMP DP  RH WIND       PRES   REMARKS
SIOUX FALLS    TSTM      69  64  84 VRB7      29.95R
HURON          LGT RAIN  74  68  81 E10       29.91F
CHAMBERLAIN    RAIN      69  69  98 E6        29.92R
MITCHELL       LGT RAIN  71  69  93 E8        29.91S
YANKTON        CLOUDY    73  68  83 E13       29.89S
$$

ABBREVIATIONS USED IN REMARKS
   TC - TEMPERATURE IN CELSIUS
  WCI - WIND CHILL INDEX
   HX - HEAT INDEX
  VSB - VISIBILITY



USA.gov is the U.S. government's official web portal to all federal, state and local government web resources and services.